STARLINK-32453, 61671

Orbit data source: Space-Track

STARLINK-32453, 61671 is a payload satellite owned by SpaceX/Seattle (US) in LEO that was launched on Sat, 26 Oct 2024 UTC via an FALCON 9 launch vehicle from the Air Force Eastern Test Range (AFETR). Payload-class satellites include a variety of spacecraft equipped with specific instruments for various scientific and technological missions. These include communications satellites like Starlink; space stations such as the ISS; scientific satellites like the Hubble; Earth observation satellites from companies like Planet Labs, Umbra, and HawkEye 360; GPS; miniature CubeSats for education and research; and military/defense satellites.

Loading next visibility...
Identifier
61671, 2024-193L
Orbit
LEO
Country
Flag of USUS
Related business
Manufacturer
SpaceX/Seattle
Mission
Operational Commercial Communications
Bus & Motor
STARLINK V2M, Unknown motor
Mass
730 kg wet, ~700 kg dry
Launch date (UTC)
2024-10-26 (10 months ago)
Launch vehicle
FALCON 9
Launch site
Air Force Eastern Test Range (AFETR)
Object type
Payload
Rocket body
Debris
Shape & HBR
Box + 2 Pan, 14.5 m
Radar Cross Section
36.964 m², Large (>1 m²)

Expand to show TLE details & history
Last TLE update: 11 hours ago

TLE from 11 hours ago
0 STARLINK-32453
1 61671U 24193L   25243.46467735 -.00000064  00000-0  99730-5 0  9992
2 61671  53.1583 254.4890 0001029  86.8350 273.2768 15.30194709 47401
Epoch: 2025-08-31T11:09Z
TLE epoch observation values (Epoch: 2025-08-31T11:09:08.123Z)
Latitude
-0.00004°
Longitude
107.32089°
Altitude
476.09 km
Speed
7.629 km/s
True Right ascension
16h 57m 57s
True Declination
0° 00' 00"
Sunlit
Object was in daylight at epoch
Visualization orbit readout
Latitude
Unknown
Longitude
Unknown
Altitude
Unknown
Speed
Unknown
Apparent Right ascension
Unknown
Apparent Declination
Unknown
Sunlit
N/A
Visualization observer readout
Local Sidereal Time
14:08:32
Azimuth
Unknown
Elevation
Unknown
Doppler factor
Unknown
Orbital elements
Apogee altitude
476.193 km
Perigee altitude
474.782 km
Semi-major axis
6,853.625 km
Eccentricity
0.0001
Inclination
53.1583°
RAAN
254.489°
Arg. of periapsis
86.835°
True anomaly
273.26503°
Mean anomaly
273.2768°
Eccentric anomaly
273.27091°
Mean motion
3.82528 °/min
Orbital period
94.11 mins
BSTAR
0.000009973
Loading maneuver chart data...
Computing Atmospheric mass density...
Loading historical data...
Loading historical data...
Loading historical data...
Loading historical data...
Loading historical data...
Loading historical data...
Loading historical data...

Documentation

Showing up to 5 results
|